Overview Statistics Trail Chart Weather Telemetry Raw packets
 

This is the latest recevied weather packets stored in our database for station/object KE6YLF. If no packets are shown the sender has not sent any weather packets the latest 10 day(s).

<< 86 87 88 89 90 91 92 >>
Time Temp. Humidity Pressure Rain* Wind** Luminosity Snow
1788055822 37.78° C 33% 1073.5 hPa 0 mm - - -
1788055521 37.78° C 33% 1073.6 hPa 0 mm - - -
1788055217 37.78° C 33% 1073.5 hPa 0 mm - - -
1788054906 37.78° C 33% 1073.4 hPa 0 mm - - -
1788054602 37.78° C 33% 1073.3 hPa 0 mm - - -
1788054298 38.33° C 33% 1073.3 hPa 0 mm - - -
1788053993 38.33° C 33% 1073.1 hPa 0 mm - - -
1788053689 38.89° C 33% 1073.2 hPa 0 mm - - -
1788053389 38.89° C 33% 1073.1 hPa 0 mm - - -
1788053083 38.89° C 34% 1073.3 hPa 0 mm - - -
1788052780 38.89° C 34% 1073.1 hPa 0 mm - - -
1788052476 38.89° C 35% 1073.1 hPa 0 mm - - -
1788052176 38.89° C 35% 1073 hPa 0 mm - - -
1788051870 38.89° C 35% 1073.1 hPa 0 mm - - -
1788051570 38.89° C 35% 1072.7 hPa 0 mm - - -
1788051269 39.44° C 35% 1073.1 hPa 0 mm - - -
1788050968 38.89° C 35% 1072.9 hPa 0 mm - - -
1788050663 39.44° C 35% 1073 hPa 0 mm - - -
1788050363 40° C 33% 1072.9 hPa 0 mm - - -
1788050062 38.89° C 34% 1072.9 hPa 0 mm - - -
1788049760 40° C 33% 1073.1 hPa 0 mm - - -
1788049455 40° C 34% 1072.6 hPa 0 mm - - -
1788049151 40° C 34% 1072.7 hPa 0 mm - - -
1788048846 40° C 34% 1073 hPa 0 mm - - -
1788048541 40° C 33% 1072.9 hPa 0 mm - - -

* Rain latest hour (hover to see other rain measurements)
** Current wind speed in m/s (hover to see current wind gust speed)